Tracking 22836 objects as of 18-Apr-2021
HD Live streaming from Space Station
objects crossing your sky now

INTELSAT 706

Track INTELSAT 706 now!
INTELSAT 706 is classified as:


NORAD ID: 23571
Int'l Code: 1995-023A
Perigee: 36,119.7 km
Apogee: 36,157.0 km
Inclination: 7.1 °
Period: 1,453.7 minutes
Semi major axis: 42509 km
RCS: 22.4876 m2 (large)
Launch date: May 17, 1995
Source: International Telecommunications Satellite Organization (ITSO)
Launch site: FRENCH GUIANA (FRGUI)

42 C-band, 36 Ku-band; broadcasting, business services, direct-to-home TV broadcasting, telecommunications, VSATnetworks Atlantic Ocean region.
aabbcc
Your satellite tracking list
Your tracking list is empty




NASA's NSSDC Master Catalog

Two Line Element Set (TLE):
1 23571U 95023A   21107.68974517 -.00000210  00000-0  00000-0 0  9999
2 23571   7.1070  58.1791 0004380 321.5735  64.4806  0.99054963 94643
Source of the keplerian elements: AFSPC